Year,Month,Day,Hour,Minute,Value (Times are PST for temperature in C)
2018,05,23,00,00,12.70
2018,05,23,00,01,12.70
2018,05,23,00,02,12.60
2018,05,23,00,03,12.60
2018,05,23,00,04,12.60
2018,05,23,00,05,12.50
2018,05,23,00,06,12.50
2018,05,23,00,07,12.50
2018,05,23,00,08,12.40
2018,05,23,00,09,12.40
2018,05,23,00,10,12.40
2018,05,23,00,11,12.40
2018,05,23,00,12,12.30
2018,05,23,00,13,12.30
2018,05,23,00,14,12.30
2018,05,23,00,15,12.30
2018,05,23,00,16,12.20
2018,05,23,00,17,12.20
2018,05,23,00,18,12.20
2018,05,23,00,19,12.20
2018,05,23,00,20,12.10
2018,05,23,00,21,12.10
2018,05,23,00,22,12.10
2018,05,23,00,23,12.00
2018,05,23,00,24,12.00
2018,05,23,00,25,12.00
2018,05,23,00,26,12.00
2018,05,23,00,27,11.90
2018,05,23,00,28,11.90
2018,05,23,00,29,11.90
2018,05,23,00,30,11.80
2018,05,23,00,31,11.80
2018,05,23,00,32,11.80
2018,05,23,00,33,11.80
2018,05,23,00,34,11.80
2018,05,23,00,35,11.70
2018,05,23,00,36,11.70
2018,05,23,00,37,11.70
2018,05,23,00,38,11.70
2018,05,23,00,39,11.60
2018,05,23,00,40,11.60
2018,05,23,00,41,11.60
2018,05,23,00,42,11.60
2018,05,23,00,43,11.60
2018,05,23,00,44,11.60
2018,05,23,00,45,11.50
2018,05,23,00,46,11.50
2018,05,23,00,47,11.50
2018,05,23,00,48,11.40
2018,05,23,00,49,11.40
2018,05,23,00,50,11.40
2018,05,23,00,51,11.40
2018,05,23,00,52,11.40
2018,05,23,00,53,11.40
2018,05,23,00,54,11.30
2018,05,23,00,55,11.30
2018,05,23,00,56,11.30
2018,05,23,00,57,11.30
2018,05,23,00,58,11.30
2018,05,23,00,59,11.30
2018,05,23,01,00,11.30
2018,05,23,01,01,11.30
2018,05,23,01,02,11.30
2018,05,23,01,03,11.30
2018,05,23,01,04,11.30
2018,05,23,01,05,11.30
2018,05,23,01,06,11.30
2018,05,23,01,07,11.30
2018,05,23,01,08,11.30
2018,05,23,01,09,11.30
2018,05,23,01,10,11.30
2018,05,23,01,11,11.30
2018,05,23,01,12,11.30
2018,05,23,01,13,11.30
2018,05,23,01,14,11.30
2018,05,23,01,15,11.30
2018,05,23,01,16,11.30
2018,05,23,01,17,11.30
2018,05,23,01,18,11.30
2018,05,23,01,19,11.30
2018,05,23,01,20,11.30
2018,05,23,01,21,11.30
2018,05,23,01,22,11.30
2018,05,23,01,23,11.30
2018,05,23,01,24,11.30
2018,05,23,01,25,11.30
2018,05,23,01,26,11.30
2018,05,23,01,27,11.30
2018,05,23,01,28,11.30
2018,05,23,01,29,11.20
2018,05,23,01,30,11.20
2018,05,23,01,31,11.20
2018,05,23,01,32,11.20
2018,05,23,01,33,11.20
2018,05,23,01,34,11.20
2018,05,23,01,35,11.20
2018,05,23,01,36,11.20
2018,05,23,01,37,11.10
2018,05,23,01,38,11.10
2018,05,23,01,39,11.10
2018,05,23,01,40,11.10
2018,05,23,01,41,11.10
2018,05,23,01,42,11.10
2018,05,23,01,43,11.10
2018,05,23,01,44,11.10
2018,05,23,01,45,11.10
2018,05,23,01,46,11.10
2018,05,23,01,47,11.10
2018,05,23,01,48,11.10
2018,05,23,01,49,11.20
2018,05,23,01,50,11.20
2018,05,23,01,51,11.20
2018,05,23,01,52,11.20
2018,05,23,01,53,11.20
2018,05,23,01,54,11.20
2018,05,23,01,55,11.10
2018,05,23,01,56,11.10
2018,05,23,01,57,11.10
2018,05,23,01,58,11.10
2018,05,23,01,59,11.10
2018,05,23,02,00,11.10
2018,05,23,02,01,11.10
2018,05,23,02,02,11.10
2018,05,23,02,03,11.10
2018,05,23,02,04,11.10
2018,05,23,02,05,11.10
2018,05,23,02,06,11.00
2018,05,23,02,07,11.00
2018,05,23,02,08,11.00
2018,05,23,02,09,11.00
2018,05,23,02,10,10.90
2018,05,23,02,11,10.90
2018,05,23,02,12,10.90
2018,05,23,02,13,10.90
2018,05,23,02,14,10.90
2018,05,23,02,15,10.80
2018,05,23,02,16,10.80
2018,05,23,02,17,10.80
2018,05,23,02,18,10.80
2018,05,23,02,19,10.70
2018,05,23,02,20,10.70
2018,05,23,02,21,10.70
2018,05,23,02,22,10.70
2018,05,23,02,23,10.60
2018,05,23,02,24,10.60
2018,05,23,02,25,10.60
2018,05,23,02,26,10.60
2018,05,23,02,27,10.50
2018,05,23,02,28,10.50
2018,05,23,02,29,10.50
2018,05,23,02,30,10.50
2018,05,23,02,31,10.40
2018,05,23,02,32,10.40
2018,05,23,02,33,10.40
2018,05,23,02,34,10.30
2018,05,23,02,35,10.30
2018,05,23,02,36,10.30
2018,05,23,02,37,10.30
2018,05,23,02,38,10.20
2018,05,23,02,39,10.20
2018,05,23,02,40,10.20
2018,05,23,02,41,10.10
2018,05,23,02,42,10.10
2018,05,23,02,43,10.10
2018,05,23,02,44,10.10
2018,05,23,02,45,10.10
2018,05,23,02,46,10.00
2018,05,23,02,47,10.00
2018,05,23,02,48,9.90
2018,05,23,02,49,9.90
2018,05,23,02,50,9.90
2018,05,23,02,51,9.90
2018,05,23,02,52,9.90
2018,05,23,02,53,9.80
2018,05,23,02,54,9.80
2018,05,23,02,55,9.80
2018,05,23,02,56,9.80
2018,05,23,02,57,9.80
2018,05,23,02,58,9.80
2018,05,23,02,59,9.80
2018,05,23,03,00,9.80
2018,05,23,03,01,9.70
2018,05,23,03,02,9.70
2018,05,23,03,03,9.70
2018,05,23,03,04,9.70
2018,05,23,03,05,9.70
2018,05,23,03,06,9.70
2018,05,23,03,07,9.70
2018,05,23,03,08,9.70
2018,05,23,03,09,9.70
2018,05,23,03,10,9.60
2018,05,23,03,11,9.60
2018,05,23,03,12,9.60
2018,05,23,03,13,9.60
2018,05,23,03,14,9.60
2018,05,23,03,15,9.60
2018,05,23,03,16,9.60
2018,05,23,03,17,9.60
2018,05,23,03,18,9.60
2018,05,23,03,19,9.60
2018,05,23,03,20,9.60
2018,05,23,03,21,9.60
2018,05,23,03,22,9.70
2018,05,23,03,23,9.60
2018,05,23,03,24,9.60
2018,05,23,03,25,9.70
2018,05,23,03,26,9.70
2018,05,23,03,27,9.70
2018,05,23,03,28,9.60
2018,05,23,03,29,9.60
2018,05,23,03,30,9.60
2018,05,23,03,31,9.60
2018,05,23,03,32,9.60
2018,05,23,03,33,9.60
2018,05,23,03,34,9.60
2018,05,23,03,35,9.60
2018,05,23,03,36,9.60
2018,05,23,03,37,9.60
2018,05,23,03,38,9.60
2018,05,23,03,39,9.60
2018,05,23,03,40,9.60
2018,05,23,03,41,9.50
2018,05,23,03,42,9.60
2018,05,23,03,43,9.60
2018,05,23,03,44,9.50
2018,05,23,03,45,9.50
2018,05,23,03,46,9.50
2018,05,23,03,47,9.50
2018,05,23,03,48,9.50
2018,05,23,03,49,9.50
2018,05,23,03,50,9.50
2018,05,23,03,51,9.50
2018,05,23,03,52,9.50
2018,05,23,03,53,9.50
2018,05,23,03,54,9.40
2018,05,23,03,55,9.40
2018,05,23,03,56,9.40
2018,05,23,03,57,9.40
2018,05,23,03,58,9.40
2018,05,23,03,59,9.40
2018,05,23,04,00,9.40
2018,05,23,04,01,9.40
2018,05,23,04,02,9.40
2018,05,23,04,03,9.40
2018,05,23,04,04,9.40
2018,05,23,04,05,9.40
2018,05,23,04,06,9.40
2018,05,23,04,07,9.40
2018,05,23,04,08,9.40
2018,05,23,04,09,9.40
2018,05,23,04,10,9.40
2018,05,23,04,11,9.40
2018,05,23,04,12,9.40
2018,05,23,04,13,9.40
2018,05,23,04,14,9.40
2018,05,23,04,15,9.40
2018,05,23,04,16,9.40
2018,05,23,04,17,9.40
2018,05,23,04,18,9.40
2018,05,23,04,19,9.40
2018,05,23,04,20,9.40
2018,05,23,04,21,9.40
2018,05,23,04,22,9.40
2018,05,23,04,23,9.40
2018,05,23,04,24,9.40
2018,05,23,04,25,9.40
2018,05,23,04,26,9.40
2018,05,23,04,27,9.40
2018,05,23,04,28,9.40
2018,05,23,04,29,9.40
2018,05,23,04,30,9.50
2018,05,23,04,31,9.50
2018,05,23,04,32,9.40
2018,05,23,04,33,9.40
2018,05,23,04,34,9.40
2018,05,23,04,35,9.40
2018,05,23,04,36,9.40
2018,05,23,04,37,9.40
2018,05,23,04,38,9.40
2018,05,23,04,39,9.40
2018,05,23,04,40,9.40
2018,05,23,04,41,9.40
2018,05,23,04,42,9.40
2018,05,23,04,43,9.40
2018,05,23,04,44,9.40
2018,05,23,04,45,9.40
2018,05,23,04,46,9.40
2018,05,23,04,47,9.40
2018,05,23,04,48,9.40
2018,05,23,04,49,9.30
2018,05,23,04,50,9.30
2018,05,23,04,51,9.30
2018,05,23,04,52,9.30
2018,05,23,04,53,9.30
2018,05,23,04,54,9.30
2018,05,23,04,55,9.30
2018,05,23,04,56,9.30
2018,05,23,04,57,9.30
2018,05,23,04,58,9.20
2018,05,23,04,59,9.20
2018,05,23,05,00,9.20
2018,05,23,05,01,9.20
2018,05,23,05,02,9.20
2018,05,23,05,03,9.20
2018,05,23,05,04,9.20
2018,05,23,05,05,9.20
2018,05,23,05,06,9.20
2018,05,23,05,07,9.20
2018,05,23,05,08,9.20
2018,05,23,05,09,9.10
2018,05,23,05,10,9.10
2018,05,23,05,11,9.10
2018,05,23,05,12,9.10
2018,05,23,05,13,9.10
2018,05,23,05,14,9.10
2018,05,23,05,15,9.10
2018,05,23,05,16,9.10
2018,05,23,05,17,9.10
2018,05,23,05,18,9.10
2018,05,23,05,19,9.10
2018,05,23,05,20,9.00
2018,05,23,05,21,9.00
2018,05,23,05,22,9.00
2018,05,23,05,23,9.00
2018,05,23,05,24,9.00
2018,05,23,05,25,9.00
2018,05,23,05,26,8.90
2018,05,23,05,27,8.90
2018,05,23,05,28,8.90
2018,05,23,05,29,8.90
2018,05,23,05,30,8.90
2018,05,23,05,31,8.90
2018,05,23,05,32,8.90
2018,05,23,05,33,8.90
2018,05,23,05,34,8.90
2018,05,23,05,35,8.90
2018,05,23,05,36,8.90
2018,05,23,05,37,8.90
2018,05,23,05,38,8.90
2018,05,23,05,39,8.90
2018,05,23,05,40,8.90
2018,05,23,05,41,8.90
2018,05,23,05,42,8.90
2018,05,23,05,43,8.90
2018,05,23,05,44,8.90
2018,05,23,05,45,8.90
2018,05,23,05,46,8.90
2018,05,23,05,47,8.90
2018,05,23,05,48,8.90
2018,05,23,05,49,8.90
2018,05,23,05,50,8.90
2018,05,23,05,51,8.90
2018,05,23,05,52,8.90
2018,05,23,05,53,8.90
2018,05,23,05,54,8.90
2018,05,23,05,55,8.90
2018,05,23,05,56,8.90
2018,05,23,05,57,8.90
2018,05,23,05,58,8.90
2018,05,23,05,59,8.90
2018,05,23,06,00,8.90
2018,05,23,06,01,8.90
2018,05,23,06,02,8.90
2018,05,23,06,03,8.90
2018,05,23,06,04,8.90
2018,05,23,06,05,8.90
2018,05,23,06,06,8.90
2018,05,23,06,07,8.90
2018,05,23,06,08,8.90
2018,05,23,06,09,8.90
2018,05,23,06,10,8.90
2018,05,23,06,11,8.90
2018,05,23,06,12,8.90
2018,05,23,06,13,8.90
2018,05,23,06,14,8.90
2018,05,23,06,15,8.90
2018,05,23,06,16,8.90
2018,05,23,06,17,8.90
2018,05,23,06,18,8.90
2018,05,23,06,19,8.90
2018,05,23,06,20,8.90
2018,05,23,06,21,8.90
2018,05,23,06,22,8.90
2018,05,23,06,23,9.00
2018,05,23,06,24,9.00
2018,05,23,06,25,9.00
2018,05,23,06,26,9.10
2018,05,23,06,27,9.10
2018,05,23,06,28,9.20
2018,05,23,06,29,9.20
2018,05,23,06,30,9.20
2018,05,23,06,31,9.30
2018,05,23,06,32,9.30
2018,05,23,06,33,9.30
2018,05,23,06,34,9.40
2018,05,23,06,35,9.40
2018,05,23,06,36,9.40
2018,05,23,06,37,9.40
2018,05,23,06,38,9.50
2018,05,23,06,39,9.50
2018,05,23,06,40,9.50
2018,05,23,06,41,9.50
2018,05,23,06,42,9.50
2018,05,23,06,43,9.50
2018,05,23,06,44,9.60
2018,05,23,06,45,9.60
2018,05,23,06,46,9.60
2018,05,23,06,47,9.60
2018,05,23,06,48,9.70
2018,05,23,06,49,9.80
2018,05,23,06,50,9.80
2018,05,23,06,51,9.90
2018,05,23,06,52,9.90
2018,05,23,06,53,9.90
2018,05,23,06,54,10.00
2018,05,23,06,55,10.10
2018,05,23,06,56,10.10
2018,05,23,06,57,10.10
2018,05,23,06,58,10.10
2018,05,23,06,59,10.20
2018,05,23,07,00,10.20
2018,05,23,07,01,10.20
2018,05,23,07,02,10.30
2018,05,23,07,03,10.30
2018,05,23,07,04,10.30
2018,05,23,07,05,10.40
2018,05,23,07,06,10.40
2018,05,23,07,07,10.40
2018,05,23,07,08,10.50
2018,05,23,07,09,10.50
2018,05,23,07,10,10.50
2018,05,23,07,11,10.60
2018,05,23,07,12,10.60
2018,05,23,07,13,10.70
2018,05,23,07,14,10.70
2018,05,23,07,15,10.80
2018,05,23,07,16,10.80
2018,05,23,07,17,10.80
2018,05,23,07,18,10.90
2018,05,23,07,19,10.90
2018,05,23,07,20,11.00
2018,05,23,07,21,11.00
2018,05,23,07,22,11.10
2018,05,23,07,23,11.10
2018,05,23,07,24,11.20
2018,05,23,07,25,11.20
2018,05,23,07,26,11.20
2018,05,23,07,27,11.30
2018,05,23,07,28,11.30
2018,05,23,07,29,11.30
2018,05,23,07,30,11.40
2018,05,23,07,31,11.40
2018,05,23,07,32,11.40
2018,05,23,07,33,11.50
2018,05,23,07,34,11.50
2018,05,23,07,35,11.60
2018,05,23,07,36,11.60
2018,05,23,07,37,11.60
2018,05,23,07,38,11.70
2018,05,23,07,39,11.70
2018,05,23,07,40,11.70
2018,05,23,07,41,11.80
2018,05,23,07,42,11.80
2018,05,23,07,43,11.80
2018,05,23,07,44,11.80
2018,05,23,07,45,11.90
2018,05,23,07,46,11.90
2018,05,23,07,47,11.90
2018,05,23,07,48,12.00
2018,05,23,07,49,12.00
2018,05,23,07,50,12.10
2018,05,23,07,51,12.10
2018,05,23,07,52,12.20
2018,05,23,07,53,12.20
2018,05,23,07,54,12.20
2018,05,23,07,55,12.30
2018,05,23,07,56,12.30
2018,05,23,07,57,12.40
2018,05,23,07,58,12.50
2018,05,23,07,59,12.50
2018,05,23,08,00,12.60
2018,05,23,08,01,12.60
2018,05,23,08,02,12.70
2018,05,23,08,03,12.80
2018,05,23,08,04,12.80
2018,05,23,08,05,12.90
2018,05,23,08,06,13.00
2018,05,23,08,07,13.00
2018,05,23,08,08,13.10
2018,05,23,08,09,13.10
2018,05,23,08,10,13.20
2018,05,23,08,11,13.30
2018,05,23,08,12,13.40
2018,05,23,08,13,13.40
2018,05,23,08,14,13.50
2018,05,23,08,15,13.60
2018,05,23,08,16,13.60
2018,05,23,08,17,13.70
2018,05,23,08,18,13.80
2018,05,23,08,19,13.90
2018,05,23,08,20,13.90
2018,05,23,08,21,14.00
2018,05,23,08,22,14.10
2018,05,23,08,23,14.10
2018,05,23,08,24,14.20
2018,05,23,08,25,14.20
2018,05,23,08,26,14.30
2018,05,23,08,27,14.40
2018,05,23,08,28,14.40
2018,05,23,08,29,14.50
2018,05,23,08,30,14.60
2018,05,23,08,31,14.70
2018,05,23,08,32,14.80
2018,05,23,08,33,14.90
2018,05,23,08,34,15.00
2018,05,23,08,35,15.10
2018,05,23,08,36,15.20
2018,05,23,08,37,15.30
2018,05,23,08,38,15.40
2018,05,23,08,39,15.50
2018,05,23,08,40,15.60
2018,05,23,08,41,15.70
2018,05,23,08,42,15.80
2018,05,23,08,43,15.90
2018,05,23,08,44,16.00
2018,05,23,08,45,16.10
2018,05,23,08,46,16.20
2018,05,23,08,47,16.30
2018,05,23,08,48,16.50
2018,05,23,08,49,16.60
2018,05,23,08,50,16.70
2018,05,23,08,51,16.80
2018,05,23,08,52,16.90
2018,05,23,08,53,17.00
2018,05,23,08,54,17.10
2018,05,23,08,55,17.20
2018,05,23,08,56,17.30
2018,05,23,08,57,17.40
2018,05,23,08,58,17.50
2018,05,23,08,59,17.60
2018,05,23,09,00,17.70
2018,05,23,09,01,17.80
2018,05,23,09,02,17.90
2018,05,23,09,03,17.90
2018,05,23,09,04,18.10
2018,05,23,09,05,18.10
2018,05,23,09,06,18.20
2018,05,23,09,07,18.30
2018,05,23,09,08,18.40
2018,05,23,09,09,18.50
2018,05,23,09,10,18.50
2018,05,23,09,11,18.60
2018,05,23,09,12,18.60
2018,05,23,09,13,18.70
2018,05,23,09,14,18.80
2018,05,23,09,15,18.90
2018,05,23,09,16,19.00
2018,05,23,09,17,19.00
2018,05,23,09,18,19.10
2018,05,23,09,19,19.20
2018,05,23,09,20,19.30
2018,05,23,09,21,19.30
2018,05,23,09,22,19.40
2018,05,23,09,23,19.40
2018,05,23,09,24,19.50
2018,05,23,09,25,19.50
2018,05,23,09,26,19.50
2018,05,23,09,27,19.50
2018,05,23,09,28,19.60
2018,05,23,09,29,19.60
2018,05,23,09,30,19.60
2018,05,23,09,31,19.60
2018,05,23,09,32,19.60
2018,05,23,09,33,19.60
2018,05,23,09,34,19.60
2018,05,23,09,35,19.70
2018,05,23,09,36,19.70
2018,05,23,09,37,19.70
2018,05,23,09,38,19.80
2018,05,23,09,39,19.90
2018,05,23,09,40,19.90
2018,05,23,09,41,20.00
2018,05,23,09,42,20.00
2018,05,23,09,43,20.10
2018,05,23,09,44,20.10
2018,05,23,09,45,20.10
2018,05,23,09,46,20.10
2018,05,23,09,47,20.20
2018,05,23,09,48,20.20
2018,05,23,09,49,20.20
2018,05,23,09,50,20.30
2018,05,23,09,51,20.30
2018,05,23,09,52,20.30
2018,05,23,09,53,20.30
2018,05,23,09,54,20.30
2018,05,23,09,55,20.30
2018,05,23,09,56,20.30
2018,05,23,09,57,20.30
2018,05,23,09,58,20.30
2018,05,23,09,59,20.30
2018,05,23,10,00,20.30
2018,05,23,10,01,20.30
2018,05,23,10,02,20.40
2018,05,23,10,03,20.40
2018,05,23,10,04,20.40
2018,05,23,10,05,20.40
2018,05,23,10,06,20.40
2018,05,23,10,07,20.40
2018,05,23,10,08,20.50
2018,05,23,10,09,20.50
2018,05,23,10,10,20.50
2018,05,23,10,11,20.60
2018,05,23,10,12,20.60
2018,05,23,10,13,20.60
2018,05,23,10,14,20.60
2018,05,23,10,15,20.60
2018,05,23,10,16,20.60
2018,05,23,10,17,20.60
2018,05,23,10,18,20.70
2018,05,23,10,19,20.60
2018,05,23,10,20,20.60
2018,05,23,10,21,20.60
2018,05,23,10,22,20.60
2018,05,23,10,23,20.50
2018,05,23,10,24,20.50
2018,05,23,10,25,20.40
2018,05,23,10,26,20.50
2018,05,23,10,27,20.50
2018,05,23,10,28,20.50
2018,05,23,10,29,20.50
2018,05,23,10,30,20.60
2018,05,23,10,31,20.60
2018,05,23,10,32,20.60
2018,05,23,10,33,20.70
2018,05,23,10,34,20.70
2018,05,23,10,35,20.80
2018,05,23,10,36,20.90
2018,05,23,10,37,20.90
2018,05,23,10,38,21.00
2018,05,23,10,39,21.00
2018,05,23,10,40,21.10
2018,05,23,10,41,21.10
2018,05,23,10,42,21.20
2018,05,23,10,43,21.20
2018,05,23,10,44,21.20
2018,05,23,10,45,21.30
2018,05,23,10,46,21.30
2018,05,23,10,47,21.30
2018,05,23,10,48,21.20
2018,05,23,10,49,21.30
2018,05,23,10,50,21.30
2018,05,23,10,51,21.30
2018,05,23,10,52,21.40
2018,05,23,10,53,21.40
2018,05,23,10,54,21.40
2018,05,23,10,55,21.40
2018,05,23,10,56,21.40
2018,05,23,10,57,21.50
2018,05,23,10,58,21.50
2018,05,23,10,59,21.50
2018,05,23,11,00,21.60
2018,05,23,11,01,21.60
2018,05,23,11,02,21.60
2018,05,23,11,03,21.60
2018,05,23,11,04,21.60
2018,05,23,11,05,21.70
2018,05,23,11,06,21.70
2018,05,23,11,07,21.70
2018,05,23,11,08,21.70
2018,05,23,11,09,21.70
2018,05,23,11,10,21.80
2018,05,23,11,11,21.80
2018,05,23,11,12,21.90
2018,05,23,11,13,21.90
2018,05,23,11,14,21.90
2018,05,23,11,15,22.00
2018,05,23,11,16,22.10
2018,05,23,11,17,22.20
2018,05,23,11,18,22.30
2018,05,23,11,19,22.40
2018,05,23,11,20,22.50
2018,05,23,11,21,22.50
2018,05,23,11,22,22.60
2018,05,23,11,23,22.60
2018,05,23,11,24,22.60
2018,05,23,11,25,22.60
2018,05,23,11,26,22.70
2018,05,23,11,27,22.70
2018,05,23,11,28,22.70
2018,05,23,11,29,22.70
2018,05,23,11,30,22.70
2018,05,23,11,31,22.80
2018,05,23,11,32,22.80
2018,05,23,11,33,22.80
2018,05,23,11,34,22.90
2018,05,23,11,35,22.90
2018,05,23,11,36,22.90
2018,05,23,11,37,22.90
2018,05,23,11,38,22.90
2018,05,23,11,39,23.00
2018,05,23,11,40,23.00
2018,05,23,11,41,23.10
2018,05,23,11,42,23.10
2018,05,23,11,43,23.20
2018,05,23,11,44,23.20
2018,05,23,11,45,23.20
2018,05,23,11,46,23.20
2018,05,23,11,47,23.20
2018,05,23,11,48,23.20
2018,05,23,11,49,23.10
2018,05,23,11,50,23.10
2018,05,23,11,51,23.10
2018,05,23,11,52,23.10
2018,05,23,11,53,23.10
2018,05,23,11,54,23.10
2018,05,23,11,55,23.10
2018,05,23,11,56,23.00
2018,05,23,11,57,23.10
2018,05,23,11,58,23.10
2018,05,23,11,59,23.10
2018,05,23,12,00,23.20
2018,05,23,12,01,23.20
2018,05,23,12,02,23.30
2018,05,23,12,03,23.40
2018,05,23,12,04,23.50
2018,05,23,12,05,23.60
2018,05,23,12,06,23.60
2018,05,23,12,07,23.60
2018,05,23,12,08,23.70
2018,05,23,12,09,23.70
2018,05,23,12,10,23.80
2018,05,23,12,11,23.90
2018,05,23,12,12,23.90
2018,05,23,12,13,24.00
2018,05,23,12,14,24.00
2018,05,23,12,15,24.10
2018,05,23,12,16,24.10
2018,05,23,12,17,24.10
2018,05,23,12,18,24.10
2018,05,23,12,19,24.10
2018,05,23,12,20,24.10
2018,05,23,12,21,24.10
2018,05,23,12,22,24.20
2018,05,23,12,23,24.20
2018,05,23,12,24,24.20
2018,05,23,12,25,24.20
2018,05,23,12,26,24.30
2018,05,23,12,27,24.30
2018,05,23,12,28,24.30
2018,05,23,12,29,24.20
2018,05,23,12,30,24.20
2018,05,23,12,31,24.10
2018,05,23,12,32,24.10
2018,05,23,12,33,24.00
2018,05,23,12,34,24.00
2018,05,23,12,35,23.90
2018,05,23,12,36,23.80
2018,05,23,12,37,23.70
2018,05,23,12,38,23.70
2018,05,23,12,39,23.80
2018,05,23,12,40,23.80
2018,05,23,12,41,23.80
2018,05,23,12,42,23.80
2018,05,23,12,43,23.70
2018,05,23,12,44,23.60
2018,05,23,12,45,23.50
2018,05,23,12,46,23.40
2018,05,23,12,47,23.40
2018,05,23,12,48,23.40
2018,05,23,12,49,23.30
2018,05,23,12,50,23.40
2018,05,23,12,51,23.30
2018,05,23,12,52,23.40
2018,05,23,12,53,23.40
2018,05,23,12,54,23.40
2018,05,23,12,55,23.40
2018,05,23,12,56,23.30
2018,05,23,12,57,23.30
2018,05,23,12,58,23.40
2018,05,23,12,59,23.40
2018,05,23,13,00,23.50
2018,05,23,13,01,23.50
2018,05,23,13,02,23.60
2018,05,23,13,03,23.60
2018,05,23,13,04,23.60
2018,05,23,13,05,23.70
2018,05,23,13,06,23.70
2018,05,23,13,07,23.70
2018,05,23,13,08,23.80
2018,05,23,13,09,23.90
2018,05,23,13,10,24.00
2018,05,23,13,11,24.00
2018,05,23,13,12,24.10
2018,05,23,13,13,24.20
2018,05,23,13,14,24.20
2018,05,23,13,15,24.20
2018,05,23,13,16,24.30
2018,05,23,13,17,24.30
2018,05,23,13,18,24.40
2018,05,23,13,19,24.40
2018,05,23,13,20,24.40
2018,05,23,13,21,24.30
2018,05,23,13,22,24.30
2018,05,23,13,23,24.30
2018,05,23,13,24,24.30
2018,05,23,13,25,24.30
2018,05,23,13,26,24.40
2018,05,23,13,27,24.40
2018,05,23,13,28,24.50
2018,05,23,13,29,24.50
2018,05,23,13,30,24.50
2018,05,23,13,31,24.60
2018,05,23,13,32,24.60
2018,05,23,13,33,24.60
2018,05,23,13,34,24.60
2018,05,23,13,35,24.70
2018,05,23,13,36,24.70
2018,05,23,13,37,24.70
2018,05,23,13,38,24.70
2018,05,23,13,39,24.70
2018,05,23,13,40,24.80
2018,05,23,13,41,24.80
2018,05,23,13,42,24.80
2018,05,23,13,43,24.90
2018,05,23,13,44,24.90
2018,05,23,13,45,24.90
2018,05,23,13,46,25.00
2018,05,23,13,47,25.00
2018,05,23,13,48,25.00
2018,05,23,13,49,25.00
2018,05,23,13,50,25.10
2018,05,23,13,51,25.10
2018,05,23,13,52,25.20
2018,05,23,13,53,25.20
2018,05,23,13,54,25.20
2018,05,23,13,55,25.10
2018,05,23,13,56,25.10
2018,05,23,13,57,25.20
2018,05,23,13,58,25.20
2018,05,23,13,59,25.20
2018,05,23,14,00,25.20
2018,05,23,14,01,25.30
2018,05,23,14,02,25.20
2018,05,23,14,03,25.20
2018,05,23,14,04,25.20
2018,05,23,14,05,25.10
2018,05,23,14,06,25.10
2018,05,23,14,07,25.10
2018,05,23,14,08,25.10
2018,05,23,14,09,25.10
2018,05,23,14,10,25.10
2018,05,23,14,11,25.10
2018,05,23,14,12,25.10
2018,05,23,14,13,25.10
2018,05,23,14,14,25.20
2018,05,23,14,15,25.20
2018,05,23,14,16,25.30
2018,05,23,14,17,25.30
2018,05,23,14,18,25.40
2018,05,23,14,19,25.50
2018,05,23,14,20,25.50
2018,05,23,14,21,25.50
2018,05,23,14,22,25.40
2018,05,23,14,23,25.40
2018,05,23,14,24,25.40
2018,05,23,14,25,25.40
2018,05,23,14,26,25.50
2018,05,23,14,27,25.50
2018,05,23,14,28,25.60
2018,05,23,14,29,25.60
2018,05,23,14,30,25.60
2018,05,23,14,31,25.60
2018,05,23,14,32,25.60
2018,05,23,14,33,25.60
2018,05,23,14,34,25.60
2018,05,23,14,35,25.70
2018,05,23,14,36,25.70
2018,05,23,14,37,25.70
2018,05,23,14,38,25.70
2018,05,23,14,39,25.80
2018,05,23,14,40,25.80
2018,05,23,14,41,25.90
2018,05,23,14,42,25.90
2018,05,23,14,43,25.90
2018,05,23,14,44,25.90
2018,05,23,14,45,25.90
2018,05,23,14,46,25.80
2018,05,23,14,47,25.90
2018,05,23,14,48,25.90
2018,05,23,14,49,25.90
2018,05,23,14,50,26.00
2018,05,23,14,51,26.00
2018,05,23,14,52,26.10
2018,05,23,14,53,26.10
2018,05,23,14,54,26.20
2018,05,23,14,55,26.20
2018,05,23,14,56,26.10
2018,05,23,14,57,26.10
2018,05,23,14,58,26.10
2018,05,23,14,59,26.10
2018,05,23,15,00,26.10
2018,05,23,15,01,26.20
2018,05,23,15,02,26.20
2018,05,23,15,03,26.20
2018,05,23,15,04,26.20
2018,05,23,15,05,26.10
2018,05,23,15,06,26.10
2018,05,23,15,07,26.10
2018,05,23,15,08,26.00
2018,05,23,15,09,25.90
2018,05,23,15,10,25.90
2018,05,23,15,11,25.90
2018,05,23,15,12,26.00
2018,05,23,15,13,26.00
2018,05,23,15,14,26.10
2018,05,23,15,15,26.00
2018,05,23,15,16,25.80
2018,05,23,15,17,25.80
2018,05,23,15,18,25.80
2018,05,23,15,19,25.80
2018,05,23,15,20,25.70
2018,05,23,15,21,25.60
2018,05,23,15,22,25.40
2018,05,23,15,23,25.20
2018,05,23,15,24,25.10
2018,05,23,15,25,25.00
2018,05,23,15,26,25.00
2018,05,23,15,27,25.00
2018,05,23,15,28,24.90
2018,05,23,15,29,24.90
2018,05,23,15,30,24.90
2018,05,23,15,31,24.80
2018,05,23,15,32,24.80
2018,05,23,15,33,24.70
2018,05,23,15,34,24.60
2018,05,23,15,35,24.50
2018,05,23,15,36,24.40
2018,05,23,15,37,24.30
2018,05,23,15,38,24.30
2018,05,23,15,39,24.40
2018,05,23,15,40,24.40
2018,05,23,15,41,24.50
2018,05,23,15,42,24.60
2018,05,23,15,43,24.70
2018,05,23,15,44,24.80
2018,05,23,15,45,24.90
2018,05,23,15,46,25.10
2018,05,23,15,47,25.20
2018,05,23,15,48,25.30
2018,05,23,15,49,25.40
2018,05,23,15,50,25.60
2018,05,23,15,51,25.70
2018,05,23,15,52,25.80
2018,05,23,15,53,25.90
2018,05,23,15,54,25.90
2018,05,23,15,55,25.90
2018,05,23,15,56,26.00
2018,05,23,15,57,26.00
2018,05,23,15,58,26.00
2018,05,23,15,59,26.10
2018,05,23,16,00,26.10
2018,05,23,16,01,26.10
2018,05,23,16,02,26.20
2018,05,23,16,03,26.20
2018,05,23,16,04,26.20
2018,05,23,16,05,26.20
2018,05,23,16,06,26.20
2018,05,23,16,07,26.10
2018,05,23,16,08,26.10
2018,05,23,16,09,26.10
2018,05,23,16,10,26.10
2018,05,23,16,11,26.10
2018,05,23,16,12,26.10
2018,05,23,16,13,26.10
2018,05,23,16,14,26.10
2018,05,23,16,15,26.10
2018,05,23,16,16,26.10
2018,05,23,16,17,26.10
2018,05,23,16,18,26.00
2018,05,23,16,19,26.00
2018,05,23,16,20,25.90
2018,05,23,16,21,25.90
2018,05,23,16,22,25.90
2018,05,23,16,23,25.90
2018,05,23,16,24,25.80
2018,05,23,16,25,25.80
2018,05,23,16,26,25.80
2018,05,23,16,27,25.70
2018,05,23,16,28,25.60
2018,05,23,16,29,25.60
2018,05,23,16,30,25.50
2018,05,23,16,31,25.40
2018,05,23,16,32,25.30
2018,05,23,16,33,25.30
2018,05,23,16,34,25.30
2018,05,23,16,35,25.30
2018,05,23,16,36,25.30
2018,05,23,16,37,25.30
2018,05,23,16,38,25.30
2018,05,23,16,39,25.20
2018,05,23,16,40,25.20
2018,05,23,16,41,25.20
2018,05,23,16,42,25.10
2018,05,23,16,43,25.10
2018,05,23,16,44,25.10
2018,05,23,16,45,25.10
2018,05,23,16,46,25.00
2018,05,23,16,47,25.10
2018,05,23,16,48,25.10
2018,05,23,16,49,25.20
2018,05,23,16,50,25.30
2018,05,23,16,51,25.30
2018,05,23,16,52,25.40
2018,05,23,16,53,25.40
2018,05,23,16,54,25.50
2018,05,23,16,55,25.50
2018,05,23,16,56,25.50
2018,05,23,16,57,25.60
2018,05,23,16,58,25.50
2018,05,23,16,59,25.50
2018,05,23,17,00,25.50
2018,05,23,17,01,25.50
2018,05,23,17,02,25.60
2018,05,23,17,03,25.70
2018,05,23,17,04,25.70
2018,05,23,17,05,25.80
2018,05,23,17,06,25.80
2018,05,23,17,07,25.80
2018,05,23,17,08,25.80
2018,05,23,17,09,25.80
2018,05,23,17,10,25.90
2018,05,23,17,11,25.90
2018,05,23,17,12,25.90
2018,05,23,17,13,25.90
2018,05,23,17,14,26.00
2018,05,23,17,15,26.00
2018,05,23,17,16,26.10
2018,05,23,17,17,26.20
2018,05,23,17,18,26.20
2018,05,23,17,19,26.30
2018,05,23,17,20,26.40
2018,05,23,17,21,26.40
2018,05,23,17,22,26.40
2018,05,23,17,23,26.30
2018,05,23,17,24,26.30
2018,05,23,17,25,26.30
2018,05,23,17,26,26.30
2018,05,23,17,27,26.30
2018,05,23,17,28,26.30
2018,05,23,17,29,26.20
2018,05,23,17,30,26.20